Location: Home
(51.5204°N, 2.5456°W)
Time: 01:55:52
(UTC+00:00)

N. Korean satellite - Pass Details

Date: 19 October 2019
Orbit: 456 x 506 km, 97.2° (Epoch: 21 November)

Event Time Altitude Azimuth Distance (km) Brightness Sun altitude
Rises 06:11:21 0° 27° (NNE) 2,551 10.6 -14.5°
Reaches altitude 10° 06:13:58 10° 48° (NE) 1,676 10.0 -14.1°
Maximum altitude 06:16:26 17° 91° (E) 1,287 9.9 -13.7°
Drops below altitude 10° 06:18:55 10° 135° (SE) 1,685 10.0 -13.4°
Sets 06:21:32 0° 155° (SSE) 2,571 10.6 -13.0°
